Weather History for Torrington, WY

Change the Weather History Date:

Monday, November 19, 2012

  Actual Average Record
Temperature  
Mean Temperature 46 °F 34 °F  
Max Temperature 64 °F 48 °F 76 °F (2007)
Min Temperature 28 °F 21 °F 8 °F (2001)
Degree Days  
Heating Degree Days 19 31  
Month to date heating degree days 445 506  
Since 1 July heating degree days 1071 1216  
Cooling Degree Days 0 0  
Month to date cooling degree days 0 0  
Year to date cooling degree days 1021 678  
Moisture  
Dew Point 29 °F    
Average Humidity 56    
Maximum Humidity 85    
Minimum Humidity 27    
Precipitation  
Precipitation 0.00 in 0.01 in 0.05 in (2011)
Month to date precipitation 0.05 0.32  
Year to date precipitation 6.96 13.72  
Sea Level Pressure  
Sea Level Pressure 30.12 in    
Wind  
Wind Speed 6 mph (West)    
Max Wind Speed 21 mph    
Max Gust Speed 30 mph    
Visibility 10 miles    
Events      
T = Trace of Precipitation, MM = Missing Value Source: NWS Daily Summary

Daily Weather History Graph

Daily Weather History Graph

Search for Another Location

Airport:

Trip Planner

Search our weather history database for the weather conditions in past years. The results will help you decide how hot, cold, wet, or windy it might be!

Date:

Astronomy

Nov. 19, 2012 Rise Set
Actual Time 6:52 AM MST 4:31 PM MST
Civil Twilight 6:21 AM MST 5:02 PM MST
Nautical Twilight 5:47 AM MST 5:36 PM MST
Astronomical Twilight 5:14 AM MST 6:09 PM MST
Moon 11:54 AM MST (11/19) 11:04 PM MST (11/19)
Length of Visible Light 10h 40m
Length of Day
9h 39m
Waxing Crescent, 41% of the Moon is Illuminated
Nov 19
Waxing Crescent
Nov 20
First Quarter
Nov 28
Full
Dec 6
Last Quarter
Dec 13
New

Hourly Weather History & Observations

Time (MST) Temp. Windchill Dew Point Humidity Pressure Visibility Wind Dir Wind Speed Gust Speed Precip Events Conditions
12:53 AM 43.0 °F - 30.9 °F 62% 29.99 in 10.0 mi Calm Calm - N/A   Clear
1:53 AM 43.0 °F 40.3 °F 32.0 °F 65% 30.01 in 10.0 mi SW 4.6 mph - N/A   Clear
2:53 AM 37.0 °F - 30.9 °F 79% 30.04 in 10.0 mi Calm Calm - N/A   Clear
3:53 AM 37.0 °F 33.3 °F 30.0 °F 76% 30.05 in 10.0 mi North 4.6 mph - N/A   Clear
4:53 AM 36.0 °F 33.3 °F 30.0 °F 79% 30.08 in 10.0 mi SSE 3.5 mph - N/A   Clear
5:53 AM 33.1 °F 28.7 °F 28.0 °F 82% 30.12 in 10.0 mi NE 4.6 mph - N/A   Clear
6:53 AM 30.9 °F - 27.0 °F 85% 30.15 in 10.0 mi Calm Calm - N/A   Clear
7:53 AM 35.1 °F 32.2 °F 30.0 °F 82% 30.16 in 10.0 mi ESE 3.5 mph - N/A   Clear
8:53 AM 37.0 °F 31.0 °F 30.9 °F 79% 30.19 in 10.0 mi East 8.1 mph - N/A   Clear
9:53 AM 42.1 °F 38.4 °F 33.1 °F 70% 30.18 in 10.0 mi East 5.8 mph - N/A   Clear
10:53 AM 52.0 °F - 35.1 °F 53% 30.14 in 10.0 mi Variable 4.6 mph - N/A   Clear
11:53 AM 54.0 °F - 33.1 °F 45% 30.13 in 10.0 mi West 11.5 mph - N/A   Clear
12:53 PM 61.0 °F - 30.9 °F 32% 30.07 in 10.0 mi West 12.7 mph 25.3 mph N/A   Clear
1:53 PM 62.1 °F - 28.9 °F 29% 30.05 in 10.0 mi West 17.3 mph 26.5 mph N/A   Clear
2:53 PM 63.0 °F - 28.9 °F 28% 30.07 in 10.0 mi WNW 12.7 mph - N/A   Clear
3:53 PM 60.1 °F - 28.0 °F 30% 30.09 in 10.0 mi WNW 10.4 mph - N/A   Clear
4:53 PM 54.0 °F - 28.0 °F 37% 30.12 in 10.0 mi WNW 8.1 mph - N/A   Clear
5:53 PM 48.0 °F - 28.0 °F 46% 30.17 in 10.0 mi West 5.8 mph - N/A   Clear
6:53 PM 46.9 °F - 28.9 °F 50% 30.19 in 10.0 mi West 3.5 mph - N/A   Clear
7:53 PM 46.0 °F 43.1 °F 28.0 °F 50% 30.18 in 10.0 mi West 5.8 mph - N/A   Clear
8:53 PM 43.0 °F - 27.0 °F 53% 30.19 in 10.0 mi Calm Calm - N/A   Clear
9:53 PM 34.0 °F - 26.1 °F 73% 30.20 in 10.0 mi Calm Calm - N/A   Clear
10:53 PM 37.9 °F 33.5 °F 26.1 °F 62% 30.17 in 10.0 mi SW 5.8 mph - N/A   Clear
11:53 PM 37.0 °F - 26.1 °F 65% 30.17 in 10.0 mi Calm Calm - N/A   Clear